Location: Arapaho Elementary School
(32.9607°N, 96.7625°W)
Time: 19:00:46
(UTC+00:00)

H-2A R/B (2) - Pass Details

Date: 02 July 2022
Orbit: 428 x 34396 km, 28.9° (Epoch: 07 August)

Event Time Altitude Azimuth Distance (km) Brightness Sun altitude
Rises 10:42:31 0° 218° (SW) 20,987 8.7 -8.0°
Reaches altitude 10° 11:26:50 10° 215° (SW) 27,280 9.3 -0.1°
Maximum altitude 19:25:43 73° 189° (S) 2,004 6.4 74.4°
Drops below altitude 10° 19:31:23 10° 104° (ESE) 2,636 4.8 73.4°
Sets 19:32:46 0° 102° (ESE) 3,203 5.1 73.2°
